Weather History for Knoxville, IA

Change the Weather History Date:

Wednesday, April 2, 2014

  Actual Average Record
Temperature  
Mean Temperature 40 °F -  
Max Temperature 48 °F 55 °F 87 °F (1981)
Min Temperature 33 °F 34 °F 15 °F (1970)
Degree Days  
Heating Degree Days 24    
Moisture  
Dew Point 30 °F    
Average Humidity 64    
Maximum Humidity 81    
Minimum Humidity 50    
Precipitation  
Precipitation 0.00 in - - ()
Sea Level Pressure  
Sea Level Pressure 29.98 in    
Wind  
Wind Speed 10 mph (ENE)    
Max Wind Speed 21 mph    
Max Gust Speed 36 mph    
Visibility 10 miles    
Events      
Averages and records for this station are not official NWS values.
T = Trace of Precipitation, MM = Missing Value Source: NWS Daily Summary

Daily Weather History Graph

Daily Weather History Graph

Search for Another Location

Airport:

Trip Planner

Search our weather history database for the weather conditions in past years. The results will help you decide how hot, cold, wet, or windy it might be!

Date:

Astronomy

Apr. 02, 2014 Rise Set
Actual Time 6:53 AM CDT 7:38 PM CDT
Civil Twilight 6:26 AM CDT 8:06 PM CDT
Nautical Twilight 5:52 AM CDT 8:39 PM CDT
Astronomical Twilight 5:18 AM CDT 9:14 PM CDT
Moon 8:37 AM CDT (4/2) 11:04 PM CDT (4/2)
Length of Visible Light 13h 40m
Length of Day
12h 44m
Waxing Crescent, 10% of the Moon is Illuminated
Apr 2
Waxing Crescent
Apr 7
First Quarter
Apr 15
Full
Apr 22
Last Quarter
Apr 29
New

Hourly Weather History & Observations

Time (CDT) Temp. Windchill Dew Point Humidity Pressure Visibility Wind Dir Wind Speed Gust Speed Precip Events Conditions
12:15 AM 41.0 °F 38.0 °F 24.8 °F 53% 30.08 in 10.0 mi NE 4.6 mph - N/A   Overcast
12:35 AM 41.0 °F 38.0 °F 24.8 °F 53% 30.07 in 10.0 mi NE 4.6 mph - N/A   Overcast
12:55 AM 39.2 °F 35.9 °F 24.8 °F 56% 30.07 in 10.0 mi ENE 4.6 mph - N/A   Mostly Cloudy
1:15 AM 39.2 °F - 24.8 °F 56% 30.07 in 10.0 mi Calm Calm - N/A   Mostly Cloudy
1:35 AM 39.2 °F 37.0 °F 24.8 °F 56% 30.06 in 10.0 mi East 3.5 mph - N/A   Overcast
1:55 AM 37.4 °F 32.8 °F 23.0 °F 56% 30.06 in 10.0 mi East 5.8 mph - N/A   Mostly Cloudy
2:15 AM 37.4 °F 32.8 °F 23.0 °F 56% 30.06 in 10.0 mi North 5.8 mph - N/A   Scattered Clouds
2:35 AM 37.4 °F 32.8 °F 24.8 °F 60% 30.06 in 10.0 mi North 5.8 mph - N/A   Mostly Cloudy
2:55 AM 37.4 °F 30.8 °F 24.8 °F 60% 30.06 in 10.0 mi NNE 9.2 mph - N/A   Overcast
3:15 AM 37.4 °F 31.4 °F 24.8 °F 60% 30.06 in 10.0 mi NNE 8.1 mph - N/A   Overcast
3:35 AM 37.4 °F 31.4 °F 24.8 °F 60% 30.05 in 10.0 mi NNE 8.1 mph - N/A   Overcast
3:55 AM 35.6 °F 28.6 °F 24.8 °F 65% 30.05 in 10.0 mi NNE 9.2 mph 15.0 mph N/A   Overcast
4:15 AM 35.6 °F 28.6 °F 24.8 °F 65% 30.06 in 10.0 mi NNE 9.2 mph - N/A   Scattered Clouds
4:35 AM 35.6 °F 28.6 °F 26.6 °F 70% 30.07 in 10.0 mi NE 9.2 mph - N/A   Clear
4:55 AM 35.6 °F 29.2 °F 26.6 °F 70% 30.07 in 10.0 mi NE 8.1 mph - N/A   Scattered Clouds
5:15 AM 33.8 °F 27.0 °F 28.4 °F 81% 30.08 in 10.0 mi NE 8.1 mph - N/A   Mostly Cloudy
5:35 AM 33.8 °F 27.7 °F 28.4 °F 81% 30.08 in 10.0 mi NE 6.9 mph - N/A   Overcast
5:55 AM 33.8 °F 27.7 °F 28.4 °F 81% 30.08 in 10.0 mi NE 6.9 mph - N/A   Mostly Cloudy
6:15 AM 33.8 °F 25.8 °F 28.4 °F 81% 30.07 in 10.0 mi NE 10.4 mph - N/A   Partly Cloudy
7:35 AM 33.8 °F 27.7 °F 28.4 °F 81% 30.09 in 9.0 mi ENE 6.9 mph - N/A   Overcast
7:55 AM 33.8 °F 23.9 °F 28.4 °F 81% 30.07 in 10.0 mi ENE 15.0 mph - N/A   Mostly Cloudy
8:15 AM 33.8 °F 25.3 °F 28.4 °F 81% 30.07 in 10.0 mi ENE 11.5 mph - N/A   Partly Cloudy
8:35 AM 33.8 °F 24.3 °F 28.4 °F 81% 30.06 in 10.0 mi East 13.8 mph - N/A   Scattered Clouds
8:55 AM 33.8 °F 24.3 °F 28.4 °F 81% 30.07 in 10.0 mi East 13.8 mph - N/A   Scattered Clouds
9:15 AM 35.6 °F 26.2 °F 28.4 °F 75% 30.07 in 10.0 mi East 15.0 mph - N/A   Partly Cloudy
9:35 AM 35.6 °F 28.0 °F 28.4 °F 75% 30.05 in 10.0 mi East 10.4 mph 19.6 mph N/A   Partly Cloudy
9:55 AM 37.4 °F 29.3 °F 28.4 °F 70% 30.05 in 10.0 mi ENE 12.7 mph - N/A   Scattered Clouds
10:15 AM 37.4 °F 28.5 °F 28.4 °F 70% 30.04 in 10.0 mi East 15.0 mph 23.0 mph N/A   Mostly Cloudy
10:35 AM 39.2 °F 31.6 °F 30.2 °F 70% 30.04 in 10.0 mi ENE 12.7 mph 19.6 mph N/A   Mostly Cloudy
10:55 AM 41.0 °F 33.9 °F 30.2 °F 65% 30.04 in 10.0 mi ENE 12.7 mph 20.7 mph N/A   Mostly Cloudy
11:35 AM 42.8 °F 36.2 °F 30.2 °F 61% 30.03 in 10.0 mi ENE 12.7 mph 19.6 mph N/A   Mostly Cloudy
11:55 AM 42.8 °F 35.4 °F 30.2 °F 61% 30.02 in 10.0 mi East 15.0 mph - N/A   Overcast
12:15 PM 44.6 °F 37.8 °F 30.2 °F 57% 30.01 in 10.0 mi ENE 15.0 mph 23.0 mph N/A   Overcast
12:55 PM 44.6 °F 37.4 °F 30.2 °F 57% 30.00 in 10.0 mi East 16.1 mph - N/A   Overcast
1:15 PM 46.4 °F 40.4 °F 30.2 °F 53% 30.01 in 10.0 mi East 13.8 mph 20.7 mph N/A   Overcast
1:35 PM 46.4 °F 40.1 °F 30.2 °F 53% 29.99 in 10.0 mi ENE 15.0 mph - N/A   Overcast
1:55 PM 46.4 °F 40.1 °F 30.2 °F 53% 29.98 in 10.0 mi East 15.0 mph 20.7 mph N/A   Overcast
2:15 PM 48.2 °F - 30.2 °F 50% 29.97 in 10.0 mi ENE 15.0 mph - N/A   Overcast
2:35 PM 46.4 °F 39.8 °F 30.2 °F 53% 29.97 in 10.0 mi East 16.1 mph - N/A   Overcast
2:55 PM 46.4 °F 39.5 °F 30.2 °F 53% 29.96 in 10.0 mi East 17.3 mph - N/A   Overcast
3:15 PM 46.4 °F 39.5 °F 30.2 °F 53% 29.94 in 10.0 mi East 17.3 mph 23.0 mph N/A   Overcast
3:35 PM 46.4 °F 40.1 °F 30.2 °F 53% 29.95 in 10.0 mi ENE 15.0 mph 20.7 mph N/A   Overcast
3:55 PM 46.4 °F 40.4 °F 32.0 °F 57% 29.93 in 10.0 mi East 13.8 mph 23.0 mph N/A   Overcast
4:15 PM 46.4 °F 40.4 °F 30.2 °F 53% 29.93 in 10.0 mi East 13.8 mph 21.9 mph N/A   Overcast
4:35 PM 46.4 °F 41.1 °F 32.0 °F 57% 29.93 in 10.0 mi East 11.5 mph 21.9 mph N/A   Overcast
4:55 PM 46.4 °F 40.4 °F 32.0 °F 57% 29.92 in 10.0 mi East 13.8 mph - N/A   Overcast
5:15 PM 46.4 °F 40.1 °F 32.0 °F 57% 29.92 in 10.0 mi East 15.0 mph 21.9 mph N/A   Overcast
5:35 PM 46.4 °F 40.1 °F 32.0 °F 57% 29.91 in 10.0 mi East 15.0 mph - N/A   Overcast
5:55 PM 46.4 °F 40.7 °F 32.0 °F 57% 29.90 in 10.0 mi East 12.7 mph 19.6 mph N/A   Overcast
6:15 PM 46.4 °F 39.8 °F 32.0 °F 57% 29.90 in 10.0 mi East 16.1 mph 23.0 mph N/A   Overcast
6:35 PM 46.4 °F 39.2 °F 32.0 °F 57% 29.89 in 10.0 mi East 18.4 mph 26.5 mph N/A   Overcast
6:55 PM 46.4 °F 39.5 °F 32.0 °F 57% 29.89 in 10.0 mi East 17.3 mph 24.2 mph N/A   Overcast
7:15 PM 46.4 °F 39.5 °F 32.0 °F 57% 29.89 in 10.0 mi East 17.3 mph 27.6 mph N/A   Overcast
7:35 PM 46.4 °F 40.4 °F 32.0 °F 57% 29.89 in 10.0 mi East 13.8 mph 23.0 mph N/A   Overcast
7:55 PM 46.4 °F 39.5 °F 32.0 °F 57% 29.87 in 10.0 mi East 17.3 mph 24.2 mph N/A   Overcast
8:15 PM 46.4 °F 39.8 °F 33.8 °F 62% 29.87 in 10.0 mi East 16.1 mph 21.9 mph N/A   Overcast
8:35 PM 46.4 °F 40.7 °F 33.8 °F 62% 29.89 in 10.0 mi East 12.7 mph 20.7 mph N/A   Overcast
8:55 PM 46.4 °F 40.4 °F 33.8 °F 62% 29.90 in 10.0 mi East 13.8 mph 21.9 mph N/A   Overcast
9:15 PM 46.4 °F 39.5 °F 35.6 °F 66% 29.89 in 10.0 mi East 17.3 mph 27.6 mph N/A   Overcast
9:35 PM 46.4 °F 38.7 °F 35.6 °F 66% 29.89 in 10.0 mi ESE 20.7 mph 35.7 mph N/A   Overcast
9:55 PM 44.6 °F 37.8 °F 35.6 °F 71% 29.88 in 10.0 mi ESE 15.0 mph 29.9 mph N/A   Overcast
10:15 PM 44.6 °F 36.9 °F 35.6 °F 71% 29.87 in 10.0 mi ESE 18.4 mph 28.8 mph N/A   Overcast
10:35 PM 44.6 °F 37.2 °F 37.4 °F 76% 29.88 in 10.0 mi East 17.3 mph 26.5 mph N/A   Overcast
10:55 PM 44.6 °F 36.9 °F 37.4 °F 76% 29.87 in 10.0 mi ESE 18.4 mph 26.5 mph N/A   Overcast
11:15 PM 44.6 °F 37.4 °F 37.4 °F 76% 29.85 in 10.0 mi East 16.1 mph 31.1 mph N/A   Overcast
11:35 PM 44.6 °F 36.9 °F 37.4 °F 76% 29.84 in 10.0 mi East 18.4 mph 25.3 mph N/A   Overcast
11:55 PM 44.6 °F 37.2 °F 37.4 °F 76% 29.84 in 9.0 mi ESE 17.3 mph 29.9 mph N/A   Overcast